Weather Roundup
Issued by NWS

Home | Current Version | Previous Version | Graphics & Text | Print | Product List | Glossary Off
Versions: 1 2 3 4 5 6 7 8 9 10 11 12 13 14 15 16 17 18 19 20 21 22 23 24 25 26 27 28 29 30 31 32 33 34 35 36 37 38 39 40 41 42 43 44 45 46 47 48 49 50

436
NZUS93 KARX 250210
HRRWXR

CURRENT HOURLY OBSERVATIONS ACROSS
MUCH OF THE UPPER MISSISSIPPI VALLEY
NATIONAL WEATHER SERVICE LA CROSSE WI
900 PM CDT SUN JUL 24 2016


...SOUTHEAST MINNESOTA...


CITY           SKY/WX    TMP DP  RH WIND       PRES   REMARKS
ROCHESTER      CLEAR     71  67  87 W8        29.97R
ROCHESTER/MAYO FAIR      74  64  70 W12       29.97R
WINONA         CLEAR     77  63  61 W8        29.92R
AUSTIN         CLEAR     72  64  78 W7        29.98R
ALBERT LEA     CLEAR     72  64  78 CALM      29.99S
DODGE CENTER   CLEAR     72  63  73 W8        29.98R
PRESTON        CLEAR     69  64  84 W7        29.98R
OWATONNA       CLEAR     70  64  83 W5        29.98S
FARIBAULT      CLEAR     72  64  78 W5        29.98R
$$

...ELSEWHERE IN MINNESOTA...


CITY           SKY/WX    TMP DP  RH WIND       PRES   REMARKS
MINNEAPOLIS    PTCLDY    77  63  61 W8        29.93S
INTNL FALLS    PTCLDY    68  59  73 W7        29.86R
DULUTH         PTCLDY    72  60  66 W8        29.88S
RED WING       CLEAR     75  63  64 NW5       29.91R
REDWOOD FALLS  CLEAR     73  63  70 W7        29.98S
MANKATO        CLEAR     73  63  68 W6        29.98S
WORTHINGTON    CLEAR     70  64  81 W6        30.04S
FAIRMONT       PTCLDY    72  54  53 CALM      29.99S
$$

...SOUTHWEST WISCONSIN...


CITY           SKY/WX    TMP DP  RH WIND       PRES   REMARKS
LA CROSSE      CLEAR     77  65  66 W7        29.90R
PRAIRIE DU CHI MOCLDY    75  65  70 W7        29.91R
BOSCOBEL       CLOUDY    77  69  76 CALM      29.90R
LONE ROCK      PTCLDY    74  70  87 CALM      29.90R
PLATTEVILLE    CLOUDY    74  70  86 W6        29.92S
FORT MC COY    PTCLDY    72  66  81 W6        29.91R
CAMP DOUGLAS   CLOUDY    72  66  82 W3        29.89R
MAUSTON-NEW LI CLOUDY    75  68  77 W5        29.89R
VIROQUA        FAIR      71  66  82 W6        29.94R
WIS DELLS      CLOUDY    74  66  75 W5        29.90R
$$

...ELSEWHERE IN WISCONSIN...


CITY           SKY/WX    TMP DP  RH WIND       PRES   REMARKS
MILWAUKEE      CLOUDY    88  75  65 NW8       29.85R HX  97
MADISON        CLOUDY    78  67  68 W3        29.89S
GREEN BAY      CLEAR     74  69  85 W5        29.84R
EAU CLAIRE     CLOUDY    73  63  70 NW6       29.89S
BLACK RVR FLS  FAIR      72  65  79 CALM      29.89R
MEDFORD        CLOUDY    70  64  81 NW3       29.90S
WAUSAU         PTCLDY    76  62  62 NW10      29.87R
WIS RAPIDS     MOCLDY    74  62  66 NW6       29.89R
MARSHFIELD     MOCLDY    73  63  70 NW7       29.89S
RICE LAKE      CLEAR     71  61  72 W6        29.93R
$$

...NORTHEAST IOWA...


CITY           SKY/WX    TMP DP  RH WIND       PRES   REMARKS
WATERLOO       PTCLDY    75  66  73 W6        29.96R
DUBUQUE        CLOUDY    75  67  76 CALM      29.93F
DECORAH        CLEAR     72  66  83 VRB3      29.95R
MASON CITY     CLOUDY    70  64  81 NW8       30.01R
CHARLES CITY   CLOUDY    72  68  88 W6        29.99R
OELWEIN        MOCLDY    73  68  83 W7        29.98R
$$

...ELSEWHERE IN IOWA...


CITY           SKY/WX    TMP DP  RH WIND       PRES   REMARKS
DES MOINES     CLOUDY    80  66  62 N8        29.98S
IOWA CITY      CLOUDY    77  68  73 W7        29.95R
FORT DODGE     CLOUDY    73  66  78 CALM      30.02S
MARSHALLTOWN   MOCLDY    72  69  90 NW7       29.97S
CEDAR RAPIDS   CLOUDY    73  69  87 W8        29.95R
$$

...NORTHERN ILLINOIS...


CITY           SKY/WX    TMP DP  RH WIND       PRES   REMARKS
CHICAGO-OHARE  CLOUDY    75  72  90 S7        29.88R
CHICAGO-MIDWAY CLOUDY    76  68  76 W6        29.88F
MOLINE         MOCLDY    83  67  58 NW9       29.91S
ROCKFORD       MOCLDY    85  73  67 NW17      29.91R HX  91
PEORIA         CLOUDY    86  82  88 CALM      29.90R THUNDER HX 104
$$

NOTE: "FAIR" INDICATES FEW OR NO CLOUDS BELOW 12,000 FEET WITH NO
SIGNIFICANT WEATHER AND/OR OBSTRUCTIONS TO VISIBILITY. WIND
SPEEDS ARE IN MILES-PER-HOUR.




USA.gov is the U.S. government's official web portal to all federal, state and local government web resources and services.